| time (UTC) | temp F | wind direction | speed MPH | gust MPH | rain 1hr in | rain 24hr in | rain mn in | humidity % | barometer mb |
| 20260507044554 | 45 | 28 | 5.0 | 10.0 | 0.00 | 0.00 | 0.00 | 86 | 1010.7 |
| 20260507043046 | 46 | 30 | 4.0 | 10.0 | 0.00 | 0.00 | 0.00 | 85 | 1010.8 |
| 20260507041544 | 47 | 19 | 5.0 | 10.0 | 0.00 | 0.00 | 0.00 | 84 | 1010.8 |
| 20260507040043 | 48 | 38 | 4.0 | 8.0 | 0.00 | 0.00 | 0.00 | 81 | 1010.8 |
| 20260507034541 | 49 | 36 | 3.0 | 8.0 | 0.00 | 0.00 | 0.00 | 80 | 1010.9 |
| 20260507033041 | 49 | 34 | 2.0 | 6.0 | 0.00 | 0.00 | 0.00 | 79 | 1010.8 |
| 20260507031536 | 49 | 34 | 1.0 | 5.0 | 0.00 | 0.00 | 0.00 | 79 | 1010.7 |
| 20260507030038 | 49 | 34 | 2.0 | 8.0 | 0.00 | 0.00 | 0.00 | 80 | 1010.8 |
| 20260507024542 | 49 | 32 | 3.0 | 6.0 | 0.00 | 0.00 | 0.00 | 80 | 1010.9 |
| 20260507023033 | 49 | 33 | 2.0 | 6.0 | 0.00 | 0.00 | 0.00 | 80 | 1010.9 |
| 20260507021546 | 50 | 33 | 2.0 | 5.0 | 0.00 | 0.00 | 0.00 | 80 | 1011.1 |
| 20260507020031 | 50 | 33 | 3.0 | 6.0 | 0.00 | 0.00 | 0.00 | 80 | 1011.2 |
| 20260507014528 | 50 | 38 | 2.0 | 5.0 | 0.00 | 0.00 | 0.00 | 79 | 1011.3 |
| 20260507013032 | 50 | 37 | 2.0 | 6.0 | 0.00 | 0.00 | 0.00 | 79 | 1011.3 |
| 20260507011530 | 50 | 37 | 3.0 | 6.0 | 0.00 | 0.00 | 0.00 | 78 | 1011.5 |
| 20260507010034 | 50 | 38 | 2.0 | 6.0 | 0.00 | 0.00 | 0.00 | 78 | 1011.7 |
| 20260507004522 | 50 | 33 | 4.0 | 8.0 | 0.00 | 0.00 | 0.00 | 78 | 1011.7 |
| 20260507003020 | 51 | 11 | 2.0 | 5.0 | 0.00 | 0.00 | 0.00 | 77 | 1011.7 |
| 20260507001519 | 51 | 9 | 1.0 | 5.0 | 0.00 | 0.00 | 0.00 | 77 | 1012.0 |
| 20260507000018 | 51 | 9 | 1.0 | 5.0 | 0.00 | 0.00 | 0.00 | 77 | 1012.0 |
| 20260506234517 | 51 | 333 | 1.0 | 5.0 | 0.00 | 0.00 | 0.00 | 77 | 1012.0 |
| 20260506233016 | 51 | 329 | 0.0 | 4.0 | 0.00 | 0.00 | 0.00 | 77 | 1011.8 |
| 20260506231517 | 51 | 54 | 4.0 | 9.0 | 0.00 | 0.00 | 0.00 | 77 | 1011.8 |
| 20260506230013 | 51 | 61 | 6.0 | 16.0 | 0.00 | 0.00 | 0.00 | 77 | 1011.8 |
| 20260506224512 | 51 | 79 | 11.0 | 16.0 | 0.00 | 0.00 | 0.00 | 76 | 1011.8 |
| 20260506223015 | 51 | 51 | 10.0 | 16.0 | 0.00 | 0.00 | 0.00 | 76 | 1011.8 |
| 20260506221507 | 52 | 91 | 12.0 | 20.0 | 0.00 | 0.00 | 0.00 | 75 | 1011.8 |
| 20260506220005 | 52 | 73 | 11.0 | 19.0 | 0.00 | 0.00 | 0.00 | 74 | 1011.8 |
| 20260506214504 | 53 | 76 | 13.0 | 21.0 | 0.00 | 0.00 | 0.00 | 72 | 1011.8 |
| 20260506213003 | 53 | 79 | 11.0 | 20.0 | 0.00 | 0.00 | 0.00 | 70 | 1011.8 |
| 20260506211502 | 54 | 69 | 7.0 | 17.0 | 0.00 | 0.00 | 0.00 | 68 | 1011.9 |
| 20260506210001 | 54 | 82 | 6.0 | 10.0 | 0.00 | 0.00 | 0.00 | 64 | 1012.0 |
| 20260506204502 | 54 | 32 | 3.0 | 9.0 | 0.00 | 0.00 | 0.00 | 61 | 1011.9 |
| 20260506203001 | 55 | 34 | 1.0 | 4.0 | 0.00 | 0.00 | 0.00 | 60 | 1011.7 |
| 20260506201502 | 56 | 35 | 0.0 | 5.0 | 0.00 | 0.00 | 0.00 | 58 | 1011.7 |
| 20260506200113 | 57 | 34 | 2.0 | 4.0 | 0.00 | 0.00 | 0.00 | 57 | 1011.6 |
| 20260506194622 | 58 | 34 | 2.0 | 4.0 | 0.00 | 0.00 | 0.00 | 56 | 1011.5 |
| 20260506193100 | 59 | 34 | 1.0 | 5.0 | 0.00 | 0.00 | 0.00 | 52 | 1011.4 |
| 20260506191559 | 60 | 34 | 3.0 | 6.0 | 0.00 | 0.00 | 0.00 | 46 | 1011.3 |
| 20260506190100 | 61 | 30 | 2.0 | 5.0 | 0.00 | 0.00 | 0.00 | 41 | 1011.3 |
| 20260506184610 | 61 | 28 | 2.0 | 5.0 | 0.00 | 0.00 | 0.00 | 40 | 1011.3 |
| 20260506183104 | 62 | 30 | 2.0 | 5.0 | 0.00 | 0.00 | 0.00 | 39 | 1011.2 |
| 20260506181600 | 63 | 29 | 2.0 | 5.0 | 0.00 | 0.00 | 0.00 | 39 | 1011.3 |
| 20260506180055 | 63 | 198 | 1.0 | 3.0 | 0.00 | 0.00 | 0.00 | 39 | 1011.4 |
| 20260506174554 | 63 | 198 | 0.0 | 4.0 | 0.00 | 0.00 | 0.00 | 39 | 1011.5 |
| 20260506173056 | 62 | 198 | 1.0 | 4.0 | 0.00 | 0.00 | 0.00 | 42 | 1011.6 |
| 20260506171551 | 61 | 197 | 3.0 | 6.0 | 0.00 | 0.00 | 0.00 | 43 | 1011.8 |
| 20260506170050 | 61 | 202 | 3.0 | 5.0 | 0.00 | 0.00 | 0.00 | 44 | 1011.8 |
| 20260506164552 | 61 | 223 | 2.0 | 7.0 | 0.00 | 0.00 | 0.00 | 44 | 1011.8 |
| 20260506163052 | 61 | 161 | 3.0 | 6.0 | 0.00 | 0.00 | 0.00 | 43 | 1011.9 |
| 20260506161556 | 62 | 159 | 2.0 | 7.0 | 0.00 | 0.00 | 0.00 | 44 | 1012.0 |
| 20260506160048 | 62 | 168 | 3.0 | 9.0 | 0.00 | 0.00 | 0.00 | 43 | 1012.0 |
| 20260506154547 | 64 | 198 | 4.0 | 7.0 | 0.00 | 0.00 | 0.00 | 40 | 1012.1 |
| 20260506153045 | 66 | 84 | 3.0 | 6.0 | 0.00 | 0.00 | 0.00 | 38 | 1012.1 |
| 20260506151600 | 65 | 159 | 2.0 | 6.0 | 0.00 | 0.00 | 0.00 | 40 | 1012.2 |
| 20260506150041 | 63 | 134 | 2.0 | 5.0 | 0.00 | 0.00 | 0.00 | 42 | 1012.4 |
| 20260506144539 | 63 | 40 | 2.0 | 8.0 | 0.00 | 0.00 | 0.00 | 43 | 1012.4 |
| 20260506143046 | 64 | 71 | 2.0 | 6.0 | 0.00 | 0.00 | 0.00 | 42 | 1012.7 |
| 20260506141535 | 64 | 183 | 1.0 | 5.0 | 0.00 | 0.00 | 0.00 | 43 | 1012.9 |
| 20260506140037 | 63 | 215 | 5.0 | 9.0 | 0.00 | 0.00 | 0.00 | 44 | 1013.1 |
| 20260506134531 | 63 | 201 | 1.0 | 8.0 | 0.00 | 0.00 | 0.00 | 45 | 1013.2 |
| 20260506133026 | 61 | 23 | 2.0 | 6.0 | 0.00 | 0.00 | 0.00 | 46 | 1013.4 |
| 20260506131529 | 61 | 55 | 1.0 | 7.0 | 0.00 | 0.00 | 0.00 | 47 | 1013.4 |
| 20260506130025 | 61 | 81 | 4.0 | 8.0 | 0.00 | 0.00 | 0.00 | 47 | 1013.6 |
| 20260506124524 | 61 | 36 | 3.0 | 6.0 | 0.00 | 0.00 | 0.00 | 47 | 1013.6 |
| 20260506123020 | 60 | 200 | 1.0 | 7.0 | 0.00 | 0.00 | 0.00 | 47 | 1013.7 |
| 20260506121517 | 59 | 254 | 2.0 | 9.0 | 0.00 | 0.00 | 0.00 | 48 | 1013.8 |
| 20260506120015 | 58 | 198 | 6.0 | 9.0 | 0.00 | 0.00 | 0.00 | 52 | 1013.9 |
| 20260506114515 | 57 | 265 | 2.0 | 6.0 | 0.00 | 0.00 | 0.00 | 54 | 1014.0 |
| 20260506113012 | 57 | 15 | 3.0 | 6.0 | 0.00 | 0.00 | 0.00 | 55 | 1014.2 |
| 20260506111509 | 56 | 200 | 0.0 | 10.0 | 0.00 | 0.00 | 0.00 | 59 | 1014.3 |
| 20260506110007 | 57 | 239 | 1.0 | 8.0 | 0.00 | 0.00 | 0.00 | 59 | 1014.4 |
| 20260506104503 | 56 | 139 | 3.0 | 9.0 | 0.00 | 0.00 | 0.00 | 60 | 1014.4 |
| 20260506103003 | 56 | 314 | 1.0 | 5.0 | 0.00 | 0.00 | 0.00 | 61 | 1014.5 |
| 20260506101604 | 55 | 161 | 3.0 | 8.0 | 0.00 | 0.00 | 0.00 | 64 | 1014.6 |
| 20260506100053 | 53 | 59 | 2.0 | 6.0 | 0.00 | 0.00 | 0.00 | 72 | 1014.7 |
| 20260506094556 | 52 | 183 | 3.0 | 8.0 | 0.00 | 0.00 | 0.00 | 77 | 1014.8 |
| 20260506093050 | 51 | 171 | 1.0 | 5.0 | 0.00 | 0.00 | 0.00 | 82 | 1014.9 |
| 20260506091542 | 49 | 167 | 3.0 | 6.0 | 0.00 | 0.00 | 0.00 | 87 | 1014.9 |
| 20260506090039 | 47 | 148 | 0.0 | 6.0 | 0.00 | 0.00 | 0.00 | 91 | 1014.9 |
| 20260506084538 | 46 | 145 | 4.0 | 7.0 | 0.00 | 0.00 | 0.00 | 92 | 1014.9 |
| 20260506083037 | 45 | 127 | 3.0 | 5.0 | 0.00 | 0.00 | 0.00 | 93 | 1014.8 |
| 20260506081536 | 43 | 123 | 1.0 | 4.0 | 0.00 | 0.00 | 0.00 | 93 | 1014.8 |
| 20260506073041 | 41 | 122 | 0.0 | 2.0 | 0.00 | 0.00 | 0.00 | 93 | 1014.8 |
| 20260506071534 | 41 | 128 | 0.0 | 3.0 | 0.00 | 0.00 | 0.00 | 93 | 1014.8 |
| 20260506061531 | 39 | 131 | 1.0 | 5.0 | 0.00 | 0.00 | 0.00 | 92 | 1014.6 |